TimeEST,TemperatureF,Dew PointF,Humidity,Sea Level PressureIn,VisibilityMPH,Wind Direction,Wind SpeedMPH,Gust SpeedMPH,PrecipitationIn,Events,Conditions,WindDirDegrees,DateUTC
12:53 AM,37.9,33.1,83,30.25,9.0,Calm,Calm,-,N/A,,Overcast,0,2012-11-28 05:53:00
1:53 AM,37.9,33.1,83,30.25,8.0,Calm,Calm,-,N/A,,Overcast,0,2012-11-28 06:53:00
2:53 AM,37.9,34.0,86,30.26,7.0,Calm,Calm,-,N/A,,Overcast,0,2012-11-28 07:53:00
3:53 AM,37.9,33.1,83,30.24,7.0,Calm,Calm,-,N/A,,Overcast,0,2012-11-28 08:53:00
4:53 AM,37.0,33.1,86,30.26,7.0,Calm,Calm,-,N/A,,Overcast,0,2012-11-28 09:53:00
5:53 AM,37.0,34.0,89,30.27,6.0,Calm,Calm,-,N/A,,Overcast,0,2012-11-28 10:53:00
6:53 AM,37.0,33.1,86,30.29,7.0,Calm,Calm,-,N/A,,Overcast,0,2012-11-28 11:53:00
7:53 AM,37.0,33.1,86,30.31,5.0,Calm,Calm,-,N/A,,Overcast,0,2012-11-28 12:53:00
8:53 AM,37.9,32.0,79,30.32,10.0,South,3.5,-,N/A,,Clear,180,2012-11-28 13:53:00
9:53 AM,41.0,32.0,70,30.31,9.0,Variable,3.5,-,N/A,,Clear,0,2012-11-28 14:53:00
10:53 AM,44.1,28.9,55,30.31,10.0,Calm,Calm,-,N/A,,Partly Cloudy,0,2012-11-28 15:53:00
11:53 AM,46.9,24.1,41,30.28,10.0,Variable,4.6,-,N/A,,Clear,0,2012-11-28 16:53:00
12:53 PM,48.0,23.0,37,30.27,10.0,SW,4.6,-,N/A,,Clear,220,2012-11-28 17:53:00
1:53 PM,48.9,21.9,35,30.26,10.0,West,11.5,-,N/A,,Clear,270,2012-11-28 18:53:00
2:25 PM,50.0,17.6,28,30.24,10.0,West,11.5,-,N/A,,Clear,270,2012-11-28 19:25:00
2:53 PM,50.0,18.0,28,30.25,10.0,NW,13.8,-,N/A,,Clear,320,2012-11-28 19:53:00
3:53 PM,48.9,18.0,29,30.25,10.0,NNW,13.8,-,N/A,,Clear,330,2012-11-28 20:53:00
4:53 PM,45.0,19.0,36,30.28,10.0,NNW,3.5,-,N/A,,Clear,330,2012-11-28 21:53:00
5:53 PM,42.1,18.0,38,30.30,10.0,NW,3.5,-,N/A,,Clear,320,2012-11-28 22:53:00
6:53 PM,42.1,17.1,37,30.31,10.0,NW,3.5,-,N/A,,Clear,320,2012-11-28 23:53:00
7:53 PM,41.0,17.1,38,30.34,10.0,Calm,Calm,-,N/A,,Clear,0,2012-11-29 00:53:00
8:53 PM,37.9,18.0,45,30.36,10.0,WNW,4.6,-,N/A,,Clear,300,2012-11-29 01:53:00
9:53 PM,37.0,17.1,44,30.37,10.0,NW,3.5,-,N/A,,Clear,320,2012-11-29 02:53:00
10:53 PM,37.0,17.1,44,30.38,10.0,SSW,3.5,-,N/A,,Clear,200,2012-11-29 03:53:00
11:53 PM,33.1,19.0,56,30.39,10.0,Calm,Calm,-,N/A,,Clear,0,2012-11-29 04:53:00